Location: Nirvana
(45.0297°N, 77.2628°W)
Time: 15:49:08
(UTC-04:00)

Envisat - Visible Passes

Search period start: 21 October 2019 00:00
Search period end: 31 October 2019 00:00
Orbit: 764 x 766 km, 98.1° (Epoch: 21 October)

Date Brightness Start Highest point End Pass type
(mag) Time Alt. Az. Time Alt. Az. Time Alt. Az.
21 Oct 6.4 06:41:18 10° ENE 06:43:25 12° E 06:45:30 10° ESE visible
21 Oct 3.8 19:34:34 10° S 19:39:31 53° W 19:44:31 10° NNW visible
22 Oct 2.9 18:57:41 10° SSE 19:02:44 73° ENE 19:07:48 10° N visible
22 Oct 6.0 20:39:28 10° WSW 20:42:18 15° W 20:45:08 10° NW visible
23 Oct 6.0 07:05:21 10° NE 07:09:14 22° E 07:13:05 10° SE visible
23 Oct 4.9 20:00:40 10° SSW 20:05:09 31° W 20:09:41 10° NNW visible
24 Oct 3.4 19:23:11 10° S 19:28:14 67° WSW 19:33:19 10° NNW visible
25 Oct 3.1 18:46:32 10° SSE 18:51:30 58° ENE 18:56:29 10° N visible
25 Oct 5.7 20:27:24 10° SW 20:30:54 19° W 20:34:26 10° NW visible
26 Oct 6.1 06:54:30 10° NE 06:57:51 17° E 07:01:09 10° SE visible
26 Oct 4.4 19:49:06 10° SSW 19:53:49 39° W 19:58:35 10° NNW visible
27 Oct 3.1 19:11:52 10° SSE 19:16:57 84° WSW 19:22:04 10° NNW visible
27 Oct 6.3 20:55:51 10° W 20:56:44 10° W 20:57:38 10° WNW visible
28 Oct 3.3 18:35:27 10° SE 18:40:17 47° ENE 18:45:08 10° N visible
28 Oct 5.4 20:15:30 10° SW 20:19:31 23° W 20:23:33 10° NW visible
29 Oct 6.3 06:43:54 10° ENE 06:46:26 14° E 06:48:58 10° ESE visible
29 Oct 4.0 19:37:36 10° S 19:42:30 49° W 19:47:26 10° NNW visible
30 Oct 2.9 19:00:37 10° SSE 19:05:41 79° ENE 19:10:48 10° N visible
30 Oct 6.1 20:42:51 10° WSW 20:45:19 14° W 20:47:48 10° WNW visible
